Location: Dos Palmas
(32.4468°N, 116.8732°W)
Time: 14:28:23
(UTC+00:00)

ATLAS 3B R/B - Pass Details

Date: 20 June 2021
Orbit: 1003 x 1191 km, 63.8° (Epoch: 21 July)

Event Time Altitude Azimuth Distance (km) Brightness Sun altitude
Rises 05:38:58 0° 233° (SW) 3,715 5.5 -26.1°
Reaches altitude 10° 05:41:46 10° 242° (WSW) 2,771 4.9 -26.4°
Maximum altitude 05:47:39 36° 307° (NW) 1,558 4.0 -27.0°
Drops below altitude 10° 05:53:43 10° 13° (NNE) 2,845 5.5 -27.7°
Sets 05:56:39 0° 22° (NNE) 3,827 6.1 -28.0°
